Time,TemperatureF,DewpointF,PressureIn,WindDirection,WindDirectionDegrees,WindSpeedMPH,WindSpeedGustMPH,Humidity,HourlyPrecipIn,Conditions,Clouds,dailyrainin,SoftwareType,DateUTC
2013-03-21 00:03:00,36.0,22.0,29.81,NW,319,5.0,-999.0,57,-99.99,,,-99.99,,2013-03-21 04:03:00,
2013-03-21 00:13:00,36.0,22.0,29.81,NW,319,5.0,-999.0,57,-99.99,,,-99.99,,2013-03-21 04:13:00,
2013-03-21 00:23:00,36.0,23.0,29.81,NW,319,3.0,-999.0,60,-99.99,,,-99.99,,2013-03-21 04:23:00,
2013-03-21 00:33:00,36.0,24.0,29.80,NW,319,4.0,-999.0,62,-99.99,,,-99.99,,2013-03-21 04:33:00,
2013-03-21 00:43:00,36.0,24.0,29.80,NW,319,4.0,-999.0,62,-99.99,,,-99.99,,2013-03-21 04:43:00,
2013-03-21 00:53:00,35.0,23.0,29.81,NW,319,2.0,-999.0,61,-99.99,,,-99.99,,2013-03-21 04:53:00,
2013-03-21 01:03:00,36.0,24.0,29.82,NW,319,3.0,-999.0,61,-99.99,,,-99.99,,2013-03-21 05:03:00,
2013-03-21 01:13:00,36.0,24.0,29.82,NW,319,3.0,-999.0,61,-99.99,,,-99.99,,2013-03-21 05:13:00,
2013-03-21 01:22:00,36.0,24.0,29.81,NW,319,4.0,-999.0,61,-99.99,,,-99.99,,2013-03-21 05:22:00,
2013-03-21 01:33:00,36.0,23.0,29.81,NNW,327,6.0,-999.0,60,-99.99,,,-99.99,,2013-03-21 05:33:00,
2013-03-21 01:44:00,36.0,23.0,29.81,NNW,327,6.0,-999.0,60,-99.99,,,-99.99,,2013-03-21 05:44:00,
2013-03-21 01:52:00,36.0,24.0,29.81,NW,322,7.0,-999.0,61,-99.99,,,-99.99,,2013-03-21 05:52:00,
2013-03-21 02:03:00,35.0,24.0,29.81,NW,321,9.0,-999.0,65,-99.99,,,-99.99,,2013-03-21 06:03:00,
2013-03-21 02:12:00,35.0,24.0,29.81,NW,321,9.0,-999.0,65,-99.99,,,-99.99,,2013-03-21 06:12:00,
2013-03-21 02:22:00,33.0,26.0,29.81,NW,305,12.0,-999.0,76,-99.99,,,-99.99,,2013-03-21 06:22:00,
2013-03-21 02:32:00,31.0,27.0,29.81,NW,320,11.0,-999.0,86,-99.99,,,-99.99,,2013-03-21 06:32:00,
2013-03-21 02:42:00,31.0,27.0,29.81,NW,320,11.0,-999.0,86,-99.99,,,-99.99,,2013-03-21 06:42:00,
2013-03-21 02:52:00,30.0,27.0,29.82,NW,313,7.0,-999.0,90,-99.99,,,-99.99,,2013-03-21 06:52:00,
2013-03-21 03:02:00,30.0,28.0,29.82,NW,306,7.0,-999.0,91,-99.99,,,-99.99,,2013-03-21 07:02:00,
2013-03-21 03:13:00,30.0,28.0,29.82,NW,306,7.0,-999.0,91,-99.99,,,-99.99,,2013-03-21 07:13:00,
2013-03-21 03:22:00,30.0,28.0,29.81,NW,306,6.0,-999.0,92,-99.99,,,-99.99,,2013-03-21 07:22:00,
2013-03-21 03:32:00,30.0,28.0,29.80,NW,307,7.0,-999.0,92,-99.99,,,-99.99,,2013-03-21 07:32:00,
2013-03-21 03:42:00,30.0,28.0,29.80,NW,307,7.0,-999.0,92,-99.99,,,-99.99,,2013-03-21 07:42:00,
2013-03-21 03:52:00,30.0,28.0,29.80,NW,307,7.0,-999.0,92,-99.99,,,-99.99,,2013-03-21 07:52:00,
2013-03-21 04:02:00,30.0,28.0,29.79,NW,313,7.0,-999.0,93,-99.99,,,-99.99,,2013-03-21 08:02:00,
2013-03-21 04:13:00,30.0,28.0,29.78,NW,315,6.0,-999.0,93,-99.99,,,-99.99,,2013-03-21 08:13:00,
2013-03-21 04:23:00,30.0,28.0,29.78,NW,315,6.0,-999.0,93,-99.99,,,-99.99,,2013-03-21 08:23:00,
2013-03-21 04:33:00,29.0,27.0,29.78,NW,309,7.0,-999.0,93,-99.99,,,-99.99,,2013-03-21 08:33:00,
2013-03-21 04:42:00,29.0,27.0,29.78,NW,309,7.0,-999.0,93,-99.99,,,-99.99,,2013-03-21 08:42:00,
2013-03-21 04:52:00,29.0,27.0,29.77,NNW,327,7.0,-999.0,93,-99.99,,,-99.99,,2013-03-21 08:52:00,
2013-03-21 05:02:00,29.0,27.0,29.77,NW,308,6.0,-999.0,92,-99.99,,,-99.99,,2013-03-21 09:02:00,
2013-03-21 05:11:00,29.0,27.0,29.77,NW,308,6.0,-999.0,92,-99.99,,,-99.99,,2013-03-21 09:11:00,
2013-03-21 05:22:00,29.0,25.0,29.77,NW,306,12.0,-999.0,86,-99.99,,,-99.99,,2013-03-21 09:22:00,
2013-03-21 05:33:00,30.0,24.0,29.78,WNW,299,10.0,-999.0,78,-99.99,,,-99.99,,2013-03-21 09:33:00,
2013-03-21 05:43:00,30.0,24.0,29.78,WNW,299,10.0,-999.0,78,-99.99,,,-99.99,,2013-03-21 09:43:00,
2013-03-21 05:53:00,30.0,22.0,29.77,NW,306,9.0,-999.0,71,-99.99,,,-99.99,,2013-03-21 09:53:00,
2013-03-21 06:03:00,30.0,21.0,29.77,NW,307,6.0,-999.0,69,-99.99,,,-99.99,,2013-03-21 10:03:00,
2013-03-21 06:12:00,30.0,21.0,29.77,NW,307,6.0,-999.0,69,-99.99,,,-99.99,,2013-03-21 10:12:00,
2013-03-21 06:23:00,31.0,22.0,29.77,NW,306,6.0,-999.0,68,-99.99,,,-99.99,,2013-03-21 10:23:00,
2013-03-21 06:34:00,31.0,22.0,29.77,NW,306,6.0,-999.0,69,-99.99,,,-99.99,,2013-03-21 10:34:00,
2013-03-21 06:42:00,31.0,22.0,29.77,NW,306,6.0,-999.0,69,-99.99,,,-99.99,,2013-03-21 10:42:00,
2013-03-21 06:53:00,31.0,22.0,29.77,WNW,288,7.0,-999.0,70,-99.99,,,-99.99,,2013-03-21 10:53:00,
2013-03-21 07:03:00,30.0,21.0,29.78,WNW,298,7.0,-999.0,70,-99.99,,,-99.99,,2013-03-21 11:03:00,
2013-03-21 07:12:00,30.0,21.0,29.78,WNW,298,7.0,-999.0,70,-99.99,,,-99.99,,2013-03-21 11:12:00,
2013-03-21 07:22:00,30.0,21.0,29.78,WNW,299,7.0,-999.0,70,-99.99,,,-99.99,,2013-03-21 11:22:00,
2013-03-21 07:33:00,30.0,22.0,29.78,WNW,298,6.0,-999.0,72,-99.99,,,-99.99,,2013-03-21 11:33:00,
2013-03-21 07:43:00,30.0,22.0,29.78,WNW,298,6.0,-999.0,72,-99.99,,,-99.99,,2013-03-21 11:43:00,
2013-03-21 07:52:00,30.0,22.0,29.78,WNW,298,4.0,-999.0,73,-99.99,,,-99.99,,2013-03-21 11:52:00,
2013-03-21 08:03:00,30.0,22.0,29.78,WNW,300,6.0,-999.0,73,-99.99,,,-99.99,,2013-03-21 12:03:00,
2013-03-21 08:12:00,30.0,22.0,29.78,WNW,300,6.0,-999.0,73,-99.99,,,-99.99,,2013-03-21 12:12:00,
2013-03-21 08:22:00,30.0,22.0,29.78,NW,304,8.0,-999.0,71,-99.99,,,-99.99,,2013-03-21 12:22:00,
2013-03-21 08:33:00,30.0,23.0,29.78,NW,304,6.0,-999.0,76,-99.99,,,-99.99,,2013-03-21 12:33:00,
2013-03-21 08:43:00,30.0,23.0,29.78,NW,304,6.0,-999.0,76,-99.99,,,-99.99,,2013-03-21 12:43:00,
2013-03-21 08:52:00,30.0,24.0,29.79,NW,307,7.0,-999.0,78,-99.99,,,-99.99,,2013-03-21 12:52:00,
2013-03-21 09:03:00,29.0,23.0,29.78,NNW,338,7.0,-999.0,79,-99.99,,,-99.99,,2013-03-21 13:03:00,
2013-03-21 09:12:00,29.0,23.0,29.78,NNW,338,7.0,-999.0,79,-99.99,,,-99.99,,2013-03-21 13:12:00,
2013-03-21 09:22:00,29.0,24.0,29.78,North,355,6.0,-999.0,80,-99.99,,,-99.99,,2013-03-21 13:22:00,
2013-03-21 09:32:00,29.0,23.0,29.79,NW,315,6.0,-999.0,77,-99.99,,,-99.99,,2013-03-21 13:32:00,
2013-03-21 09:42:00,29.0,23.0,29.79,NW,315,6.0,-999.0,77,-99.99,,,-99.99,,2013-03-21 13:42:00,
2013-03-21 09:52:00,30.0,21.0,29.78,NW,310,6.0,-999.0,70,-99.99,,,-99.99,,2013-03-21 13:52:00,
2013-03-21 10:02:00,30.0,19.0,29.78,WNW,303,7.0,-999.0,64,-99.99,,,-99.99,,2013-03-21 14:02:00,
2013-03-21 10:12:00,30.0,18.0,29.77,NW,317,8.0,-999.0,61,-99.99,,,-99.99,,2013-03-21 14:12:00,
2013-03-21 10:22:00,30.0,18.0,29.77,NW,317,8.0,-999.0,61,-99.99,,,-99.99,,2013-03-21 14:22:00,
2013-03-21 10:32:00,30.0,19.0,29.77,NW,320,11.0,-999.0,64,-99.99,,,-99.99,,2013-03-21 14:32:00,
2013-03-21 10:42:00,30.0,19.0,29.77,NW,320,11.0,-999.0,64,-99.99,,,-99.99,,2013-03-21 14:42:00,
2013-03-21 10:52:00,31.0,21.0,29.77,NW,304,8.0,-999.0,65,-99.99,,,-99.99,,2013-03-21 14:52:00,
2013-03-21 11:04:00,30.0,19.0,29.76,NW,316,9.0,-999.0,63,-99.99,,,-99.99,,2013-03-21 15:04:00,
2013-03-21 11:12:00,30.0,19.0,29.76,NW,316,9.0,-999.0,63,-99.99,,,-99.99,,2013-03-21 15:12:00,
2013-03-21 11:22:00,31.0,21.0,29.76,NNW,328,9.0,-999.0,65,-99.99,,,-99.99,,2013-03-21 15:22:00,
2013-03-21 11:33:00,30.0,19.0,29.76,NW,312,9.0,-999.0,63,-99.99,,,-99.99,,2013-03-21 15:33:00,
2013-03-21 11:42:00,30.0,19.0,29.76,NW,312,9.0,-999.0,63,-99.99,,,-99.99,,2013-03-21 15:42:00,
2013-03-21 11:53:00,30.0,19.0,29.76,NW,312,9.0,-999.0,63,-99.99,,,-99.99,,2013-03-21 15:53:00,
2013-03-21 12:03:00,31.0,20.0,29.75,WNW,293,10.0,-999.0,62,-99.99,,,-99.99,,2013-03-21 16:03:00,
2013-03-21 12:12:00,31.0,20.0,29.75,WNW,293,10.0,-999.0,62,-99.99,,,-99.99,,2013-03-21 16:12:00,
2013-03-21 12:23:00,32.0,18.0,29.75,WNW,296,9.0,-999.0,56,-99.99,,,-99.99,,2013-03-21 16:23:00,
2013-03-21 12:33:00,31.0,16.0,29.75,WNW,302,10.0,-999.0,54,-99.99,,,-99.99,,2013-03-21 16:33:00,
2013-03-21 12:42:00,31.0,16.0,29.75,WNW,302,10.0,-999.0,54,-99.99,,,-99.99,,2013-03-21 16:42:00,
2013-03-21 12:53:00,31.0,16.0,29.75,WNW,302,10.0,-999.0,54,-99.99,,,-99.99,,2013-03-21 16:53:00,
2013-03-21 13:03:00,32.0,16.0,29.74,WNW,303,9.0,-999.0,52,-99.99,,,-99.99,,2013-03-21 17:03:00,
2013-03-21 13:12:00,32.0,16.0,29.74,WNW,303,9.0,-999.0,52,-99.99,,,-99.99,,2013-03-21 17:12:00,
2013-03-21 13:23:00,32.0,17.0,29.74,NW,309,10.0,-999.0,54,-99.99,,,-99.99,,2013-03-21 17:23:00,
2013-03-21 13:33:00,32.0,17.0,29.74,WNW,299,12.0,-999.0,53,-99.99,,,-99.99,,2013-03-21 17:33:00,
2013-03-21 13:43:00,32.0,17.0,29.74,WNW,299,12.0,-999.0,53,-99.99,,,-99.99,,2013-03-21 17:43:00,
2013-03-21 13:52:00,32.0,15.0,29.73,NW,311,12.0,-999.0,50,-99.99,,,-99.99,,2013-03-21 17:52:00,
2013-03-21 14:02:00,32.0,16.0,29.73,WNW,292,14.0,-999.0,51,-99.99,,,-99.99,,2013-03-21 18:02:00,
2013-03-21 14:12:00,32.0,16.0,29.73,WNW,292,14.0,-999.0,51,-99.99,,,-99.99,,2013-03-21 18:12:00,
2013-03-21 14:23:00,32.0,16.0,29.73,NW,305,14.0,-999.0,52,-99.99,,,-99.99,,2013-03-21 18:23:00,
2013-03-21 14:32:00,33.0,17.0,29.72,WNW,292,14.0,-999.0,52,-99.99,,,-99.99,,2013-03-21 18:32:00,
2013-03-21 14:42:00,33.0,17.0,29.72,WNW,292,14.0,-999.0,52,-99.99,,,-99.99,,2013-03-21 18:42:00,
2013-03-21 14:52:00,33.0,18.0,29.72,WNW,299,13.0,-999.0,53,-99.99,,,-99.99,,2013-03-21 18:52:00,
2013-03-21 15:02:00,33.0,17.0,29.71,WNW,296,16.0,-999.0,52,-99.99,,,-99.99,,2013-03-21 19:02:00,
2013-03-21 15:12:00,33.0,17.0,29.71,WNW,296,16.0,-999.0,52,-99.99,,,-99.99,,2013-03-21 19:12:00,
2013-03-21 15:22:00,32.0,16.0,29.70,WNW,303,15.0,-999.0,52,-99.99,,,-99.99,,2013-03-21 19:22:00,
2013-03-21 15:32:00,33.0,16.0,29.70,WNW,299,13.0,-999.0,50,-99.99,,,-99.99,,2013-03-21 19:32:00,
2013-03-21 15:43:00,33.0,16.0,29.70,WNW,299,13.0,-999.0,50,-99.99,,,-99.99,,2013-03-21 19:43:00,
2013-03-21 15:52:00,33.0,18.0,29.71,WNW,288,12.0,-999.0,53,-99.99,,,-99.99,,2013-03-21 19:52:00,
2013-03-21 16:02:00,32.0,16.0,29.71,WNW,293,16.0,-999.0,51,-99.99,,,-99.99,,2013-03-21 20:02:00,
2013-03-21 16:12:00,32.0,16.0,29.71,WNW,293,16.0,-999.0,51,-99.99,,,-99.99,,2013-03-21 20:12:00,
2013-03-21 16:23:00,32.0,18.0,29.70,WNW,292,16.0,-999.0,55,-99.99,,,-99.99,,2013-03-21 20:23:00,
2013-03-21 16:33:00,33.0,16.0,29.70,WSW,251,16.0,-999.0,49,-99.99,,,-99.99,,2013-03-21 20:33:00,
2013-03-21 16:42:00,33.0,16.0,29.70,WSW,251,16.0,-999.0,49,-99.99,,,-99.99,,2013-03-21 20:42:00,
2013-03-21 16:53:00,33.0,15.0,29.70,WNW,284,16.0,-999.0,47,-99.99,,,-99.99,,2013-03-21 20:53:00,
2013-03-21 17:03:00,32.0,15.0,29.71,WNW,285,16.0,-999.0,49,-99.99,,,-99.99,,2013-03-21 21:03:00,
2013-03-21 17:12:00,32.0,15.0,29.71,WNW,285,16.0,-999.0,49,-99.99,,,-99.99,,2013-03-21 21:12:00,
2013-03-21 17:22:00,32.0,15.0,29.71,WNW,287,14.0,-999.0,49,-99.99,,,-99.99,,2013-03-21 21:22:00,
2013-03-21 17:33:00,32.0,15.0,29.72,West,279,15.0,-999.0,49,-99.99,,,-99.99,,2013-03-21 21:33:00,
2013-03-21 17:43:00,32.0,15.0,29.72,West,279,15.0,-999.0,49,-99.99,,,-99.99,,2013-03-21 21:43:00,
2013-03-21 17:53:00,32.0,14.0,29.72,West,269,16.0,-999.0,46,-99.99,,,-99.99,,2013-03-21 21:53:00,
2013-03-21 18:03:00,32.0,13.0,29.72,West,281,16.0,-999.0,44,-99.99,,,-99.99,,2013-03-21 22:03:00,
2013-03-21 18:13:00,32.0,13.0,29.72,West,281,16.0,-999.0,44,-99.99,,,-99.99,,2013-03-21 22:13:00,
2013-03-21 18:23:00,31.0,12.0,29.73,NW,304,16.0,-999.0,45,-99.99,,,-99.99,,2013-03-21 22:23:00,
2013-03-21 18:33:00,31.0,12.0,29.74,WNW,293,13.0,-999.0,45,-99.99,,,-99.99,,2013-03-21 22:33:00,
2013-03-21 18:42:00,31.0,12.0,29.74,WNW,293,13.0,-999.0,45,-99.99,,,-99.99,,2013-03-21 22:42:00,
2013-03-21 18:52:00,31.0,14.0,29.74,WNW,286,16.0,-999.0,48,-99.99,,,-99.99,,2013-03-21 22:52:00,
2013-03-21 19:02:00,30.0,13.0,29.75,West,273,16.0,-999.0,48,-99.99,,,-99.99,,2013-03-21 23:02:00,
2013-03-21 19:12:00,30.0,13.0,29.75,West,273,16.0,-999.0,48,-99.99,,,-99.99,,2013-03-21 23:12:00,
2013-03-21 19:22:00,30.0,12.0,29.76,West,281,16.0,-999.0,47,-99.99,,,-99.99,,2013-03-21 23:22:00,
2013-03-21 19:33:00,29.0,11.0,29.77,West,275,16.0,-999.0,47,-99.99,,,-99.99,,2013-03-21 23:33:00,
2013-03-21 19:43:00,29.0,11.0,29.77,West,275,16.0,-999.0,47,-99.99,,,-99.99,,2013-03-21 23:43:00,
2013-03-21 19:52:00,29.0,11.0,29.77,West,275,16.0,-999.0,47,-99.99,,,-99.99,,2013-03-21 23:52:00,
2013-03-21 20:03:00,29.0,12.0,29.78,WNW,300,14.0,-999.0,49,-99.99,,,-99.99,,2013-03-22 00:03:00,
2013-03-21 20:12:00,29.0,12.0,29.78,WNW,300,14.0,-999.0,49,-99.99,,,-99.99,,2013-03-22 00:12:00,
2013-03-21 20:22:00,29.0,12.0,29.78,WNW,300,14.0,-999.0,49,-99.99,,,-99.99,,2013-03-22 00:22:00,
2013-03-21 20:32:00,28.0,11.0,29.79,West,277,14.0,-999.0,48,-99.99,,,-99.99,,2013-03-22 00:32:00,
2013-03-21 20:42:00,28.0,11.0,29.79,West,277,14.0,-999.0,48,-99.99,,,-99.99,,2013-03-22 00:42:00,
2013-03-21 20:52:00,28.0,11.0,29.80,WNW,290,15.0,-999.0,49,-99.99,,,-99.99,,2013-03-22 00:52:00,
2013-03-21 21:03:00,28.0,12.0,29.80,WNW,289,13.0,-999.0,50,-99.99,,,-99.99,,2013-03-22 01:03:00,
2013-03-21 21:12:00,28.0,12.0,29.80,WNW,289,13.0,-999.0,50,-99.99,,,-99.99,,2013-03-22 01:12:00,
2013-03-21 21:22:00,27.0,11.0,29.80,West,280,12.0,-999.0,51,-99.99,,,-99.99,,2013-03-22 01:22:00,
2013-03-21 21:32:00,27.0,11.0,29.81,West,279,13.0,-999.0,51,-99.99,,,-99.99,,2013-03-22 01:32:00,
2013-03-21 21:43:00,27.0,11.0,29.81,West,279,13.0,-999.0,51,-99.99,,,-99.99,,2013-03-22 01:43:00,
2013-03-21 21:53:00,27.0,12.0,29.81,West,271,11.0,-999.0,53,-99.99,,,-99.99,,2013-03-22 01:53:00,
2013-03-21 22:03:00,27.0,13.0,29.81,West,271,10.0,-999.0,54,-99.99,,,-99.99,,2013-03-22 02:03:00,
2013-03-21 22:12:00,27.0,13.0,29.81,West,271,10.0,-999.0,54,-99.99,,,-99.99,,2013-03-22 02:12:00,
2013-03-21 22:22:00,26.0,12.0,29.82,West,275,10.0,-999.0,56,-99.99,,,-99.99,,2013-03-22 02:22:00,
2013-03-21 22:32:00,26.0,13.0,29.82,West,274,10.0,-999.0,58,-99.99,,,-99.99,,2013-03-22 02:32:00,
2013-03-21 22:43:00,26.0,13.0,29.82,West,274,10.0,-999.0,58,-99.99,,,-99.99,,2013-03-22 02:43:00,
2013-03-21 22:52:00,26.0,13.0,29.82,West,269,9.0,-999.0,58,-99.99,,,-99.99,,2013-03-22 02:52:00,
2013-03-21 23:02:00,26.0,13.0,29.82,West,270,11.0,-999.0,57,-99.99,,,-99.99,,2013-03-22 03:02:00,
2013-03-21 23:12:00,26.0,13.0,29.82,West,270,11.0,-999.0,57,-99.99,,,-99.99,,2013-03-22 03:12:00,
2013-03-21 23:22:00,26.0,13.0,29.82,West,266,11.0,-999.0,58,-99.99,,,-99.99,,2013-03-22 03:22:00,
2013-03-21 23:33:00,26.0,13.0,29.83,West,263,12.0,-999.0,58,-99.99,,,-99.99,,2013-03-22 03:33:00,
2013-03-21 23:43:00,26.0,13.0,29.83,West,263,12.0,-999.0,58,-99.99,,,-99.99,,2013-03-22 03:43:00,
2013-03-21 23:53:00,26.0,13.0,29.83,West,272,12.0,-999.0,58,-99.99,,,-99.99,,2013-03-22 03:53:00,